Location: Newark
(25.4297°S, 49.2719°W)
Time: 17:11:46
(UTC+00:00)

Hubble Space Telescope - Pass Details

Date: 01 July 2021
Orbit: 535 x 539 km, 28.5° (Epoch: 25 July)

Event Time Altitude Azimuth Distance (km) Brightness Sun altitude
Rises 21:10:37 0° 306° (NW) 2,665 6.2 -7.5°
Reaches altitude 10° 21:12:58 10° 315° (NW) 1,779 4.7 -8.0°
Maximum altitude 21:16:48 37° 23° (NNE) 833 1.7 -8.8°
Enters shadow 21:20:29 11° 90° (E) 1,731 2.8 -9.5°
